Location: Peterborough
(44.3091°N, 78.3197°W)
Time: 04:02:11
(UTC-04:00)

Tiros 1 - Pass Details

Date: 03 April 2023
Orbit: 627 x 661 km, 48.4° (Epoch: 09 June)

Event Time Altitude Azimuth Distance (km) Brightness Sun altitude
Rises 09:53:21 0° 287° (WNW) 2,991 10.0 31.0°
Reaches altitude 10° 09:56:11 10° 271° (W) 2,074 9.4 31.5°
Maximum altitude 09:59:43 21° 224° (SW) 1,484 9.0 32.0°
Drops below altitude 10° 10:03:13 10° 176° (S) 2,057 10.2 32.6°
Sets 10:06:02 0° 160° (SSE) 2,959 11.2 33.0°
